This is the latest recevied weather packets stored in our database for station/object KA0EGE. If no packets are shown the sender has not sent any weather packets the latest 10 day(s).
| Time | Temp. | Humidity | Pressure | Rain* | Wind** | Luminosity | Snow |
|---|---|---|---|---|---|---|---|
| 1778073583 | 22.22° C | 99% | 1018.4 hPa | 0 mm | - | 226 W/m² | - |
| 1778073280 | 21.67° C | 99% | 1018.3 hPa | 0 mm | - | 166 W/m² | - |
| 1778072977 | 22.22° C | 99% | 1018.4 hPa | 0 mm | - | 102 W/m² | - |
| 1778072673 | 21.67° C | 99% | 1018.3 hPa | 0 mm | - | 192 W/m² | - |
| 1778072371 | 22.22° C | 99% | 1018.2 hPa | 0 mm | - | 250 W/m² | - |
| 1778072069 | 21.67° C | 99% | 1018.1 hPa | 0 mm | - | 169 W/m² | - |
| 1778071768 | 21.67° C | 99% | 1018 hPa | 0 mm | - | 147 W/m² | - |
| 1778071464 | 21.11° C | 99% | 1018 hPa | 0 mm | - | 150 W/m² | - |
| 1778071162 | 21.11° C | 99% | 1017.8 hPa | 0 mm | - | 112 W/m² | - |
| 1778070860 | 20.56° C | 99% | 1017.8 hPa | 0 mm | - | 119 W/m² | - |
| 1778070557 | 20.56° C | 99% | 1017.5 hPa | 0 mm | - | 92 W/m² | - |
| 1778070254 | 20° C | 99% | 1017.3 hPa | 0 mm | - | 76 W/m² | - |
| 1778069953 | 20° C | 99% | 1017.5 hPa | 0 mm | - | 83 W/m² | - |
| 1778069649 | 20° C | 99% | 1017.4 hPa | 0 mm | - | 81 W/m² | - |
| 1778069346 | 20° C | 99% | 1017.3 hPa | 0 mm | - | 81 W/m² | - |
| 1778069044 | 19.44° C | 99% | 1017.1 hPa | 0 mm | - | 71 W/m² | - |
| 1778068741 | 18.89° C | 99% | 1016.8 hPa | 0 mm | - | 62 W/m² | - |
| 1778068439 | 18.89° C | 99% | 1016.9 hPa | 0 mm | - | 56 W/m² | - |
| 1778068137 | 18.33° C | 99% | 1016.6 hPa | 0 mm | - | 50 W/m² | - |
| 1778067834 | 18.33° C | 99% | 1016.7 hPa | 0 mm | - | 40 W/m² | - |
| 1778067533 | 18.33° C | 99% | 1016.6 hPa | 0 mm | - | 34 W/m² | - |
| 1778067229 | 18.33° C | 99% | 1016.4 hPa | 0 mm | - | 29 W/m² | - |
| 1778066926 | 18.33° C | 99% | 1016.7 hPa | 0 mm | - | 23 W/m² | - |
| 1778066623 | 18.33° C | 99% | 1016.5 hPa | 0 mm | - | 18 W/m² | - |
| 1778066321 | 18.33° C | 99% | 1016.5 hPa | 0 mm | - | 14 W/m² | - |
* Rain latest hour (hover to see other rain measurements)
** Current wind speed in m/s (hover to see current wind gust speed)